[[{"header":{"parameterUnit":"m.s-1","parameterCategory":2,"la1":30.2991,"la2":30.254,"lo1":-89.0895,"lo2":-89.0444,"dy":0.0017,"dx":0.0017,"nx":28,"ny":28,"refTime":"2025-03-30T03:00:00:Z","depth":"0","parameterNumber":2,"parameterNumberName":"U-component_of_CURRENTS"},"data":[0,0,0,0,0,0,0,0,0,0,0,0,0,0,0,0,0,0,0,0,0,0,0,0,0,0,0,0,0,0,0,0,0,0,0,0,0,0,0,0,0,0,0,0,0,0,0,0,0,0,0,0,0,0,0,0,0,0,0.1711,0.1711,0,0.1665,0.1665,0.1664,0.1642,0.1642,0.1642,0.1642,0.161,0.1609,0.1608,0,0,0,0,0,0,0,0,0,0,0,0,0,0.1731,0.1731,0.1711,0.1711,0.171,0.1665,0.1665,0.1664,0.1642,0.1642,0.1642,0.1642,0.161,0.1609,0.1608,0,0,0,0,0,0,0,0,0,0,0,0,0,0.1706,0.1731,0.1711,0.1695,0.1694,0.1666,0.1665,0.1664,0.1641,0.1642,0.1642,0.1642,0.1611,0.1609,0.1608,0.1593,0,0,0.1603,0.1602,0,0,0,0,0,0,0,0,0.1708,0.1705,0.1698,0.1696,0.1694,0.1661,0.166,0.1641,0.1641,0.1659,0.1642,0.1642,0.1629,0.1626,0.1614,0.1591,0.159,0.1603,0.1602,0.1601,0.1601,0,0,0,0,0,0,0,0.1709,0.1707,0.1691,0.1698,0.1695,0.1674,0.1671,0.1656,0.1642,0.1658,0.1656,0.1654,0.1628,0.1616,0.1613,0.1589,0.1603,0.1602,0.1601,0.16,0.1584,0.1585,0,0,0,0,0,0,0.1721,0.1709,0.1693,0.169,0.1704,0.1674,0.167,0.167,0.1642,0.1638,0.1654,0.1653,0.1618,0.1615,0.1612,0.1617,0.1601,0.16,0.1599,0.1584,0.1584,0.1585,0,0,0,0,0,0,0.1722,0.172,0.1695,0.1699,0.1695,0.1674,0.1673,0.1669,0.1668,0.1639,0.1636,0.1659,0.1618,0.1614,0.1611,0.1615,0.1599,0.1598,0.1583,0.1584,0.1585,0.1612,0,0,0,0,0,0,0.1722,0.1721,0.173,0.1701,0.1695,0.1696,0.1673,0.1668,0.1666,0.1665,0.1642,0.1639,0.1618,0.1613,0.1609,0.1613,0.1597,0.1583,0.1584,0.1584,0.161,0.1614,0.1616,0,0,0,0,0,0.1723,0.1736,0.173,0.1729,0.1707,0.1697,0.1692,0.1676,0.1666,0.1674,0.1655,0.164,0.1617,0.1612,0.1608,0.1611,0.1582,0.1583,0.1584,0.1609,0.1613,0.1616,0,0,0,0,0,0,0.1746,0.1734,0.1727,0.1735,0.1725,0.1694,0.1696,0.1684,0.1673,0.1671,0.1644,0.164,0.164,0.1624,0.162,0.161,0.1598,0.1598,0.1618,0.1622,0.1624,0.1629,0.1595,0,0,0,0,0,0.1757,0.1762,0.1746,0.1751,0.1749,0.1725,0.172,0.1708,0.1691,0.1686,0.1667,0.1649,0.1638,0.163,0.1618,0.161,0.1641,0.1611,0.1614,0.1616,0.1618,0.165,0.1656,0.1589,0.1589,0.1589,0,0,0.1763,0.1759,0.176,0.1756,0.1743,0.1736,0.1722,0.1719,0.1707,0.1685,0.1668,0.1662,0.164,0.1633,0.1631,0.1621,0.1664,0.1618,0.162,0.162,0.1651,0.1658,0.1664,0.1589,0.1589,0.1589,0,0,0.1775,0.1778,0.1785,0.178,0.1772,0.1754,0.1759,0.1737,0.1726,0.1714,0.1696,0.1694,0.1669,0.1654,0.1643,0.1656,0.1682,0.1656,0.1667,0.1698,0.1704,0.171,0.1815,0.1829,0.1652,0.1652,0.1652,0,0.1784,0.1792,0.1786,0.1788,0.1787,0.1765,0.1769,0.1747,0.1725,0.1726,0.1716,0.1697,0.1676,0.167,0.1669,0.1661,0.1712,0.1654,0.1703,0.1708,0.1713,0.1819,0.1835,0.1654,0.1654,0.1653,0.1653,0,0.1793,0.1804,0.1808,0.1802,0.1799,0.1802,0.1776,0.1771,0.1757,0.1741,0.1744,0.1719,0.1714,0.1704,0.1684,0.1706,0.1748,0.1709,0.1695,0.1722,0.1833,0.1848,0.1656,0.1655,0.1655,0.1654,0,0,0.18,0.1816,0.1816,0.183,0.1813,0.1815,0.1796,0.179,0.1798,0.1769,0.1789,0.1749,0.1753,0.1741,0.1725,0.1736,0.1824,0.1738,0.1739,0.1847,0.1964,0.2073,0.2101,0.1796,0.1798,0.1799,0.2049,0,0.1812,0.1839,0.1833,0.1848,0.1862,0.1844,0.1836,0.1824,0.1816,0.1828,0.1802,0.1816,0.176,0.1781,0.1776,0.1812,0.1857,0.1764,0.1917,0.1923,0.2019,0.2119,0.2084,0.2309,0.2064,0.2067,0.2068,0,0.1817,0.1843,0.1872,0.1899,0.1904,0.1904,0.1917,0.1908,0.1904,0.1908,0.1904,0.1896,0.1911,0.1861,0.1934,0.1884,0.193,0.1954,0.1963,0.206,0.206,0.223,0.2347,0.2216,0.2093,0.2091,0.2089,0,0.1834,0.1867,0.1901,0.1907,0.1926,0.194,0.1945,0.194,0.1956,0.1975,0.201,0.2005,0.2044,0.2058,0.2102,0.2031,0.2218,0.2126,0.2281,0.2292,0.229,0.2298,0.2294,0.2197,0.2197,0.2196,0.2195,0,0.1846,0.1869,0.1923,0.1938,0.1984,0.1984,0.202,0.2024,0.2054,0.2084,0.2064,0.2118,0.2092,0.2177,0.2181,0.2326,0.2295,0.2329,0.2364,0.2307,0.2314,0.2218,0.2141,0.2205,0.2203,0.2201,0.22,0,0.1836,0.1872,0.1916,0.197,0.199,0.202,0.2067,0.2089,0.2128,0.2177,0.2198,0.225,0.2376,0.2404,0.2488,0.2477,0.2514,0.2627,0.2611,0.2638,0.2618,0.2545,0.2559,0.2484,0.2831,0.2835,0.2839,0,0.1828,0.1857,0.1936,0.1964,0.1988,0.2038,0.2062,0.2114,0.2146,0.2257,0.2292,0.2447,0.2537,0.276,0.2803,0.2922,0.2723,0.2942,0.2767,0.2662,0.2604,0.2444,0.2363,0.2803,0.2806,0.2808,0.281,0,0.1804,0.1839,0.1873,0.1947,0.1991,0.2041,0.2094,0.2144,0.2205,0.2286,0.2422,0.2526,0.2764,0.2876,0.3057,0.3094,0.2794,0.2998,0.2855,0.258,0.2436,0.2365,0.2641,0.2832,0.283,0.2828,0.2827,0.2826,0.177,0.1791,0.1844,0.1908,0.1964,0.2023,0.2049,0.2126,0.2217,0.2316,0.2463,0.2599,0.2804,0.3064,0.3111,0.3114,0.3007,0.2975,0.291,0.2768,0.2633,0.3017,0.3251,0.3252,0.3252,0.3252,0.3252,0,0.1717,0.1746,0.1797,0.1867,0.1907,0.1962,0.2042,0.2062,0.2154,0.2299,0.2428,0.2633,0.2808,0.2936,0.3046,0.2974,0.2806,0.288,0.257,0.25,0.2829,0.276,0.2937,0.2937,0.2937,0.2938,0.2938,0.2938,0.1682,0.1702,0.174,0.1789,0.1839,0.1873,0.191,0.1971,0.2063,0.2191,0.2293,0.2416,0.262,0.2803,0.2776,0.2738,0.2455,0.2453,0.2352,0.2497,0.2495,0.2493,0.2405,0.2505,0.2504,0.1923,0.1919,0.1915]},{"header":{"parameterUnit":"m.s-1","parameterCategory":2,"la1":30.2991,"la2":30.254,"lo1":-89.0895,"lo2":-89.0444,"dy":0.0017,"dx":0.0017,"nx":28,"ny":28,"refTime":"2025-03-30T03:00:00:Z","depth":"0","parameterNumber":3,"parameterNumberName":"V-component_of_CURRENTS"},"data":[0,0,0,0,0,0,0,0,0,0,0,0,0,0,0,0,0,0,0,0,0,0,0,0,0,0,0,0,0,0,0,0,0,0,0,0,0,0,0,0,0,0,0,0,0,0,0,0,0,0,0,0,0,0,0,0,0,0,0.0011,0.001,0,-0.0039,-0.0039,-0.004,-0.0044,-0.0043,-0.0042,-0.0042,-0.0137,-0.014,-0.0143,0,0,0,0,0,0,0,0,0,0,0,0,0,0.0088,0.0086,0.0011,0.001,0.001,-0.0039,-0.0039,-0.004,-0.0044,-0.0043,-0.0042,-0.0042,-0.0136,-0.0139,-0.0143,0,0,0,0,0,0,0,0,0,0,0,0,0,0.0047,0.0086,0.0011,0.0003,0.0002,-0.0039,-0.0039,-0.004,-0.0044,-0.0043,-0.0042,-0.0041,-0.0135,-0.0139,-0.0144,-0.0191,0,0,-0.0158,-0.016,0,0,0,0,0,0,0,0,0.005,0.0044,0.0005,0.0003,0.0002,-0.0034,-0.0047,-0.0093,-0.0044,-0.0027,-0.0042,-0.0041,-0.0107,-0.0114,-0.0125,-0.0195,-0.0199,-0.0158,-0.0161,-0.0163,-0.0164,0,0,0,0,0,0,0,0.0052,0.0046,-0.0009,0.0004,0.0002,-0.0004,-0.0008,-0.0056,-0.0073,-0.0029,-0.0029,-0.0034,-0.0108,-0.0121,-0.0128,-0.0201,-0.0158,-0.0162,-0.0165,-0.0167,-0.0319,-0.032,0,0,0,0,0,0,0.0059,0.0049,-0.0008,-0.0011,0.0029,-0.0006,-0.0011,-0.0024,-0.0071,-0.0077,-0.0035,-0.0034,-0.0113,-0.0122,-0.0131,-0.0173,-0.0163,-0.0167,-0.017,-0.0317,-0.0319,-0.032,0,0,0,0,0,0,0.0061,0.0054,-0.0006,0.0019,0.0011,-0.0008,-0.0022,-0.0025,-0.0037,-0.0075,-0.0082,-0.0043,-0.0113,-0.0125,-0.0176,-0.0177,-0.017,-0.0174,-0.0316,-0.0318,-0.0319,-0.0267,0,0,0,0,0,0,0.0063,0.0055,0.0046,0.0019,0.001,-0.0023,-0.0023,-0.0027,-0.0041,-0.0041,-0.0085,-0.0093,-0.0113,-0.0169,-0.0181,-0.0183,-0.0177,-0.0314,-0.0317,-0.0319,-0.0267,-0.0267,-0.0266,0,0,0,0,0,0.0066,0.006,0.0046,0.0039,-0.0001,-0.0023,-0.0028,-0.0039,-0.0042,-0.0047,-0.0083,-0.0091,-0.0192,-0.0174,-0.0187,-0.0191,-0.0313,-0.0316,-0.0319,-0.0267,-0.0267,-0.0266,0,0,0,0,0,0,0.0086,0.0058,0.0042,0.0026,0.0003,-0.0023,-0.0025,-0.0042,-0.0075,-0.0074,-0.0112,-0.0123,-0.0165,-0.0198,-0.0177,-0.0245,-0.0253,-0.0258,-0.0209,-0.0209,-0.0209,-0.0195,-0.0181,0,0,0,0,0,0.0084,0.0077,0.0042,0.003,0.0022,-0.0007,-0.0018,-0.0029,-0.0059,-0.0071,-0.0106,-0.0149,-0.019,-0.0213,-0.0253,-0.0298,-0.0306,-0.0311,-0.031,-0.031,-0.031,-0.0336,-0.0337,-0.0329,-0.0329,-0.0329,0,0,0.0089,0.0072,0.0067,0.0034,0.0019,0.0007,-0.001,-0.0023,-0.0038,-0.008,-0.0111,-0.015,-0.0204,-0.0242,-0.0265,-0.0267,-0.0312,-0.0313,-0.0312,-0.0313,-0.0339,-0.0339,-0.0339,-0.0331,-0.0331,-0.0331,0,0,0.0107,0.008,0.0084,0.0066,0.0042,0.002,0.0015,-0.0018,-0.0034,-0.0077,-0.0108,-0.015,-0.0215,-0.0248,-0.0274,-0.0306,-0.0309,-0.032,-0.0306,-0.033,-0.033,-0.033,-0.031,-0.0309,-0.0319,-0.0319,-0.0319,0,0.0116,0.0108,0.0081,0.0079,0.007,0.0028,0.0027,-0.0004,-0.0052,-0.0069,-0.0078,-0.0173,-0.0216,-0.0265,-0.0273,-0.0301,-0.0302,-0.0294,-0.0325,-0.0326,-0.0327,-0.0307,-0.0306,-0.0317,-0.0317,-0.0317,-0.0317,0,0.0136,0.0128,0.0131,0.0113,0.0094,0.0089,0.0045,0.002,-0.001,-0.0041,-0.0094,-0.0155,-0.0205,-0.023,-0.0262,-0.0297,-0.0288,-0.0316,-0.0314,-0.0324,-0.0303,-0.0303,-0.0314,-0.0314,-0.0315,-0.0316,0,0,0.0161,0.015,0.0149,0.0153,0.0113,0.0106,0.0073,0.0035,0.0029,-0.0035,-0.0048,-0.0138,-0.0166,-0.02,-0.0246,-0.0277,-0.0278,-0.0298,-0.03,-0.0256,-0.0296,-0.0251,-0.0247,-0.0307,-0.0308,-0.0309,-0.0265,0,0.0186,0.0204,0.018,0.0186,0.0191,0.0144,0.0125,0.0082,0.0044,0.0019,-0.0058,-0.0088,-0.0156,-0.0167,-0.0216,-0.0261,-0.0282,-0.0285,-0.0314,-0.0314,-0.0256,-0.0248,-0.0245,-0.0204,-0.0265,-0.0265,-0.0265,0,0.0209,0.022,0.0239,0.0237,0.0235,0.0226,0.0199,0.0176,0.0118,0.0092,0.0034,-0.0014,-0.0077,-0.0126,-0.0211,-0.0206,-0.025,-0.0288,-0.0287,-0.0267,-0.0271,-0.0215,-0.0202,-0.0342,-0.0266,-0.0266,-0.0266,0,0.0251,0.0258,0.028,0.0278,0.0265,0.0261,0.0245,0.0199,0.0197,0.0144,0.0151,0.0055,0.004,-0.0055,-0.0134,-0.0171,-0.0199,-0.0258,-0.0258,-0.0253,-0.0268,-0.0264,-0.0379,-0.0316,-0.0316,-0.0316,-0.0316,0,0.0285,0.0301,0.0307,0.0321,0.0346,0.0315,0.033,0.03,0.0282,0.0298,0.0198,0.0214,0.0056,0.0018,-0.0087,-0.0145,-0.0159,-0.0244,-0.0245,-0.0247,-0.0242,-0.038,-0.0458,-0.0315,-0.0315,-0.0315,-0.0316,0,0.032,0.0324,0.0355,0.0363,0.0368,0.0385,0.0394,0.0407,0.0385,0.0408,0.0402,0.0349,0.0308,0.0178,0.0065,-0.0047,-0.019,-0.0147,-0.0111,-0.011,-0.0267,-0.0341,-0.0427,-0.0472,-0.0156,-0.0155,-0.0154,0,0.0338,0.0362,0.0395,0.0418,0.0423,0.0445,0.0461,0.0451,0.0475,0.0504,0.0531,0.0515,0.0525,0.0398,0.02,0.0056,-0.01,-0.0053,-0.0149,-0.0264,-0.0349,-0.0406,-0.0443,-0.0136,-0.0135,-0.0134,-0.0133,0,0.0372,0.0386,0.0411,0.0465,0.0494,0.0535,0.0564,0.0609,0.0613,0.0665,0.075,0.0781,0.0667,0.0544,0.0341,0.02,-0.0146,-0.0038,-0.0191,-0.0366,-0.0404,-0.045,-0.0147,-0.0125,-0.0126,-0.0127,-0.0127,-0.0128,0.0389,0.0418,0.0455,0.0505,0.0551,0.0619,0.0666,0.0726,0.0812,0.092,0.0943,0.1045,0.0823,0.0557,0.0347,-0.0053,-0.0066,-0.0203,-0.0283,-0.0329,-0.0389,-0.0034,0.0002,0.0002,0.0002,0.0002,0.0002,0,0.0403,0.0438,0.0492,0.0556,0.0621,0.0639,0.0731,0.0803,0.0933,0.1079,0.1192,0.1193,0.0898,0.0553,0.0028,-0.0258,-0.0397,-0.0426,-0.0555,-0.0582,-0.0301,-0.0319,-0.0309,-0.0309,-0.0308,-0.0308,-0.0308,-0.0308,0.0406,0.0456,0.0491,0.0599,0.0656,0.0757,0.0822,0.0954,0.1085,0.131,0.1431,0.15,0.1236,0.0257,-0.0402,-0.0554,-0.0778,-0.0802,-0.0895,-0.0767,-0.0755,-0.0743,-0.0781,-0.0868,-0.0869,-0.1156,-0.1159,-0.1162]}],[{"header":{"parameterUnit":"m.s-1","parameterCategory":2,"la1":30.2991,"la2":30.254,"lo1":-89.0895,"lo2":-89.0444,"dy":0.0017,"dx":0.0017,"nx":28,"ny":28,"refTime":"2025-03-30T03:00:00:Z","depth":"2","parameterNumber":2,"parameterNumberName":"U-component_of_CURRENTS"},"data":[0,0,0,0,0,0,0,0,0,0,0,0,0,0,0,0,0,0,0,0,0,0,0,0,0,0,0,0,0,0,0,0,0,0,0,0,0,0,0,0,0,0,0,0,0,0,0,0,0,0,0,0,0,0,0,0,0,0,0.0925,0.0926,0,0.0987,0.0987,0.0988,0.1079,0.1081,0.1083,0.1085,0.1127,0.1126,0.1125,0,0,0,0,0,0,0,0,0,0,0,0,0,0.0888,0.0887,0.0925,0.0926,0.0927,0.0987,0.0987,0.0988,0.1079,0.1082,0.1084,0.1086,0.1127,0.1126,0.1125,0,0,0,0,0,0,0,0,0,0,0,0,0,0.0917,0.0887,0.0925,0.0984,0.099,0.0987,0.0987,0.0988,0.1078,0.1082,0.1085,0.1088,0.1128,0.1126,0.1125,0.1055,0,0,0.1121,0.1121,0,0,0,0,0,0,0,0,0.0915,0.0918,0.0974,0.098,0.0987,0.1033,0.099,0.1011,0.1078,0.104,0.1085,0.1089,0.1095,0.1096,0.1094,0.1057,0.1059,0.1121,0.1121,0.112,0.112,0,0,0,0,0,0,0,0.0913,0.0916,0.0945,0.0975,0.0983,0.1008,0.1015,0.0994,0.1045,0.1043,0.1051,0.1065,0.1098,0.1095,0.1096,0.106,0.1121,0.112,0.1119,0.1119,0.1032,0.103,0,0,0,0,0,0,0.0912,0.0913,0.0943,0.0947,0.0964,0.1007,0.1015,0.1011,0.1046,0.1056,0.1062,0.1069,0.1096,0.1097,0.1098,0.1108,0.112,0.1119,0.1118,0.1033,0.1031,0.103,0,0,0,0,0,0,0.091,0.0913,0.094,0.0937,0.0943,0.1005,0.1,0.1011,0.1052,0.1061,0.1071,0.1099,0.1098,0.1099,0.1096,0.1107,0.1118,0.1117,0.1035,0.1033,0.1031,0.1071,0,0,0,0,0,0,0.0908,0.0911,0.0907,0.0936,0.0943,0.0965,0.0998,0.101,0.1056,0.1066,0.1094,0.1099,0.1101,0.1098,0.1095,0.1106,0.1116,0.1037,0.1034,0.1031,0.1071,0.107,0.1069,0,0,0,0,0,0.0907,0.0905,0.0906,0.091,0.0935,0.0966,0.0972,0.1023,0.1055,0.1071,0.1079,0.11,0.1077,0.1095,0.1092,0.1104,0.1039,0.1035,0.1031,0.1072,0.107,0.1069,0,0,0,0,0,0,0.0901,0.0915,0.0917,0.0922,0.0949,0.0985,0.1015,0.1035,0.1053,0.1074,0.1079,0.1082,0.1088,0.107,0.109,0.1062,0.1061,0.1056,0.1092,0.109,0.1089,0.1093,0.1115,0,0,0,0,0,0.0888,0.0888,0.0909,0.0917,0.0938,0.0973,0.0995,0.1026,0.1048,0.1064,0.1077,0.1074,0.1058,0.1059,0.1047,0.1025,0.1075,0.1025,0.1024,0.1023,0.1019,0.108,0.1087,0.1018,0.1018,0.1018,0,0,0.0887,0.0899,0.0897,0.0915,0.0948,0.0967,0.0996,0.1045,0.1051,0.1058,0.108,0.1079,0.105,0.1038,0.1037,0.1035,0.108,0.1019,0.1019,0.1015,0.1078,0.1085,0.1092,0.1016,0.1016,0.1016,0,0,0.0902,0.0903,0.0913,0.0932,0.0979,0.099,0.101,0.1052,0.1069,0.1074,0.1076,0.1069,0.1064,0.1034,0.1016,0.0986,0.1076,0.0998,0.0996,0.1057,0.1065,0.1072,0.1211,0.123,0.0993,0.0994,0.0994,0,0.0902,0.0912,0.0925,0.0949,0.0973,0.1003,0.1031,0.1029,0.106,0.1079,0.1093,0.1084,0.1051,0.1022,0.1002,0.0987,0.1078,0.1016,0.1062,0.1069,0.1076,0.1216,0.1237,0.0995,0.0995,0.0995,0.0995,0,0.0921,0.0936,0.096,0.098,0.1,0.1037,0.1043,0.1065,0.1092,0.1105,0.1119,0.1073,0.1091,0.1051,0.1012,0.1027,0.1101,0.1067,0.1083,0.1087,0.1234,0.1255,0.0997,0.0997,0.0996,0.0996,0,0,0.0904,0.0958,0.0968,0.0992,0.1025,0.105,0.1059,0.1085,0.113,0.1126,0.1184,0.1091,0.1128,0.1103,0.1066,0.1058,0.1173,0.1084,0.1087,0.1254,0.1406,0.1433,0.146,0.1182,0.1184,0.1185,0.1517,0,0.0921,0.0971,0.0988,0.1032,0.1061,0.1088,0.1101,0.1126,0.116,0.1219,0.1175,0.1211,0.1131,0.1164,0.115,0.1166,0.122,0.1092,0.1347,0.1356,0.1404,0.1479,0.1272,0.1546,0.1538,0.1541,0.1544,0,0.0924,0.0963,0.1013,0.1077,0.1099,0.1127,0.1198,0.1217,0.1276,0.1315,0.1353,0.1367,0.1361,0.1293,0.1373,0.1321,0.1377,0.1373,0.1387,0.1403,0.1418,0.1522,0.1585,0.1579,0.1576,0.1574,0.1571,0,0.0898,0.0975,0.1021,0.1039,0.1109,0.1154,0.1203,0.1267,0.1302,0.1405,0.1475,0.1507,0.1553,0.1589,0.1597,0.1532,0.1713,0.1639,0.1729,0.1737,0.1598,0.1588,0.1725,0.1725,0.1724,0.1723,0.1722,0,0.0881,0.0916,0.1029,0.1046,0.1119,0.1185,0.1271,0.1321,0.1425,0.1484,0.1548,0.16,0.1625,0.172,0.1717,0.1826,0.1854,0.1765,0.1815,0.1611,0.1598,0.1619,0.1603,0.1736,0.1733,0.173,0.1728,0,0.0809,0.0884,0.0936,0.1052,0.1098,0.1154,0.1287,0.1346,0.147,0.156,0.1604,0.1727,0.1876,0.1933,0.2027,0.2003,0.2072,0.2105,0.1907,0.1923,0.2043,0.2023,0.2273,0.2276,0.2279,0.2282,0.2284,0,0.0771,0.0798,0.0921,0.0967,0.1022,0.1131,0.1196,0.1336,0.1395,0.1603,0.1632,0.1849,0.1943,0.2169,0.2167,0.229,0.2254,0.2185,0.1957,0.2072,0.2096,0.2071,0.2049,0.1836,0.1834,0.1833,0.1832,0,0.0691,0.0745,0.0789,0.0888,0.0972,0.1052,0.1168,0.122,0.1386,0.1496,0.1655,0.1774,0.201,0.204,0.2229,0.2228,0.214,0.2162,0.2359,0.1706,0.1679,0.1695,0.1684,0.1819,0.182,0.1821,0.1822,0.1822,0.0636,0.0645,0.0727,0.0812,0.0896,0.0974,0.1033,0.1151,0.1264,0.1428,0.1572,0.1723,0.1812,0.1984,0.2004,0.2047,0.2158,0.2049,0.2045,0.2044,0.1911,0.1887,0.2048,0.2051,0.2053,0.2055,0.2056,0,0.0576,0.0606,0.0659,0.0756,0.0814,0.0903,0.1009,0.1068,0.1185,0.1319,0.1474,0.1446,0.1555,0.1692,0.1715,0.1772,0.1651,0.1737,0.1533,0.155,0.1564,0.1395,0.1402,0.14,0.1398,0.1396,0,0,0.0548,0.0569,0.0598,0.0674,0.0752,0.0841,0.0902,0.0992,0.1085,0.1145,0.1224,0.1411,0.1565,0.1399,0.1441,0.1428,0.1449,0.1378,0.1903,0.1672,0.1682,0.1759,0.1523,0,0,0,0,0]},{"header":{"parameterUnit":"m.s-1","parameterCategory":2,"la1":30.2991,"la2":30.254,"lo1":-89.0895,"lo2":-89.0444,"dy":0.0017,"dx":0.0017,"nx":28,"ny":28,"refTime":"2025-03-30T03:00:00:Z","depth":"2","parameterNumber":3,"parameterNumberName":"V-component_of_CURRENTS"},"data":[0,0,0,0,0,0,0,0,0,0,0,0,0,0,0,0,0,0,0,0,0,0,0,0,0,0,0,0,0,0,0,0,0,0,0,0,0,0,0,0,0,0,0,0,0,0,0,0,0,0,0,0,0,0,0,0,0,0,-0.0377,-0.0377,0,-0.0423,-0.0424,-0.0425,-0.042,-0.0419,-0.0419,-0.0418,-0.0504,-0.0507,-0.051,0,0,0,0,0,0,0,0,0,0,0,0,0,-0.0322,-0.0323,-0.0377,-0.0377,-0.0378,-0.0423,-0.0424,-0.0425,-0.042,-0.0419,-0.0418,-0.0418,-0.0503,-0.0507,-0.0511,0,0,0,0,0,0,0,0,0,0,0,0,0,-0.0356,-0.0323,-0.0376,-0.038,-0.0381,-0.0423,-0.0424,-0.0425,-0.0421,-0.0419,-0.0418,-0.0417,-0.0502,-0.0507,-0.0511,-0.0564,0,0,-0.0525,-0.0527,0,0,0,0,0,0,0,0,-0.0354,-0.0358,-0.0379,-0.038,-0.0381,-0.0414,-0.0436,-0.0473,-0.0421,-0.0407,-0.0418,-0.0416,-0.0478,-0.0485,-0.0497,-0.0568,-0.0572,-0.0526,-0.0528,-0.053,-0.0532,0,0,0,0,0,0,0,-0.0351,-0.0356,-0.0396,-0.038,-0.0381,-0.0393,-0.0396,-0.0443,-0.045,-0.0408,-0.0407,-0.0411,-0.0479,-0.0493,-0.0499,-0.0573,-0.0525,-0.053,-0.0532,-0.0534,-0.0685,-0.0686,0,0,0,0,0,0,-0.0343,-0.0354,-0.0395,-0.0397,-0.0363,-0.0394,-0.0398,-0.0405,-0.0449,-0.0454,-0.0412,-0.0411,-0.0485,-0.0494,-0.0502,-0.0546,-0.053,-0.0535,-0.0537,-0.0684,-0.0685,-0.0686,0,0,0,0,0,0,-0.0342,-0.0347,-0.0393,-0.0376,-0.0382,-0.0396,-0.0405,-0.0407,-0.0422,-0.0452,-0.0457,-0.0425,-0.0485,-0.0496,-0.0547,-0.055,-0.0537,-0.0541,-0.0682,-0.0684,-0.0686,-0.0647,0,0,0,0,0,0,-0.034,-0.0346,-0.036,-0.0375,-0.0383,-0.0415,-0.0406,-0.0409,-0.0426,-0.0424,-0.0465,-0.0471,-0.0485,-0.054,-0.0551,-0.0556,-0.0544,-0.0681,-0.0683,-0.0685,-0.0647,-0.0648,-0.0648,0,0,0,0,0,-0.0338,-0.0347,-0.036,-0.0366,-0.0397,-0.0416,-0.0421,-0.0427,-0.0427,-0.0436,-0.0466,-0.047,-0.0562,-0.0545,-0.0558,-0.0564,-0.0679,-0.0682,-0.0685,-0.0647,-0.0648,-0.0648,0,0,0,0,0,0,-0.0335,-0.0348,-0.0362,-0.0378,-0.0399,-0.0414,-0.0422,-0.0435,-0.0466,-0.0464,-0.0493,-0.0503,-0.0544,-0.0573,-0.0553,-0.0617,-0.062,-0.0625,-0.0586,-0.0587,-0.0588,-0.056,-0.0548,0,0,0,0,0,-0.0342,-0.0347,-0.0371,-0.0385,-0.0393,-0.0415,-0.0427,-0.0432,-0.0456,-0.0468,-0.0496,-0.0532,-0.0569,-0.0591,-0.0627,-0.0673,-0.0674,-0.0686,-0.0686,-0.0686,-0.0675,-0.069,-0.0689,-0.0696,-0.0696,-0.0696,0,0,-0.0343,-0.0353,-0.0357,-0.0385,-0.0398,-0.0405,-0.0419,-0.0431,-0.0439,-0.0476,-0.05,-0.0538,-0.0584,-0.0621,-0.0643,-0.0643,-0.0685,-0.069,-0.0689,-0.0678,-0.0692,-0.0691,-0.069,-0.0698,-0.0697,-0.0697,0,0,-0.0333,-0.0358,-0.0355,-0.037,-0.0391,-0.0403,-0.0408,-0.0432,-0.0444,-0.0482,-0.0505,-0.0543,-0.0607,-0.0629,-0.0652,-0.0686,-0.0687,-0.0705,-0.0686,-0.07,-0.0698,-0.0697,-0.0684,-0.0682,-0.0706,-0.0705,-0.0705,0,-0.0334,-0.0339,-0.036,-0.0361,-0.037,-0.0399,-0.04,-0.0421,-0.0459,-0.0472,-0.0482,-0.0565,-0.0603,-0.0643,-0.0651,-0.0682,-0.0685,-0.0673,-0.0696,-0.0695,-0.0695,-0.0682,-0.068,-0.0704,-0.0704,-0.0704,-0.0704,0,-0.0319,-0.0329,-0.0327,-0.0336,-0.0351,-0.0356,-0.0382,-0.0401,-0.0424,-0.0444,-0.0491,-0.0546,-0.0585,-0.0614,-0.0644,-0.0667,-0.0667,-0.069,-0.0683,-0.0691,-0.0678,-0.0677,-0.0702,-0.0702,-0.0703,-0.0703,0,0,-0.0297,-0.0312,-0.0311,-0.0315,-0.0337,-0.0344,-0.0358,-0.0382,-0.038,-0.0434,-0.0439,-0.0518,-0.054,-0.0569,-0.0614,-0.0638,-0.0637,-0.0662,-0.0663,-0.0627,-0.0647,-0.0645,-0.0644,-0.0664,-0.0664,-0.0664,-0.0634,0,-0.0279,-0.0275,-0.0287,-0.0285,-0.0287,-0.0314,-0.032,-0.0345,-0.0368,-0.038,-0.0443,-0.0465,-0.0526,-0.0539,-0.0574,-0.0619,-0.0634,-0.0641,-0.0664,-0.0664,-0.0644,-0.0643,-0.0595,-0.0565,-0.0633,-0.0633,-0.0633,0,-0.0256,-0.0259,-0.0254,-0.0261,-0.0262,-0.0264,-0.0273,-0.0281,-0.0307,-0.0322,-0.0357,-0.0393,-0.0437,-0.0483,-0.055,-0.0552,-0.0593,-0.0631,-0.0631,-0.0639,-0.066,-0.0574,-0.056,-0.063,-0.0631,-0.0631,-0.0631,0,-0.0228,-0.0233,-0.023,-0.0234,-0.0245,-0.0246,-0.025,-0.0266,-0.0267,-0.0276,-0.0266,-0.0326,-0.034,-0.0412,-0.0488,-0.0516,-0.0546,-0.0592,-0.0627,-0.0626,-0.0594,-0.059,-0.0631,-0.0631,-0.0631,-0.0631,-0.0631,0,-0.0199,-0.0193,-0.0218,-0.0212,-0.0202,-0.0219,-0.0203,-0.0207,-0.0209,-0.0192,-0.0231,-0.0225,-0.0325,-0.0358,-0.0444,-0.0515,-0.0507,-0.0611,-0.062,-0.058,-0.0576,-0.0648,-0.065,-0.063,-0.063,-0.063,-0.0631,0,-0.0151,-0.0175,-0.0168,-0.0181,-0.0187,-0.0174,-0.0173,-0.0155,-0.0154,-0.0127,-0.0124,-0.0143,-0.0177,-0.0264,-0.0354,-0.0443,-0.0519,-0.0546,-0.0477,-0.0481,-0.06,-0.0601,-0.0585,-0.0585,-0.0584,-0.0584,-0.0584,0,-0.0123,-0.0117,-0.0134,-0.013,-0.0132,-0.0127,-0.0117,-0.0128,-0.0108,-0.0081,-0.006,-0.0069,-0.0059,-0.0167,-0.0301,-0.041,-0.0476,-0.0471,-0.0536,-0.0585,-0.0596,-0.0598,-0.0599,-0.0468,-0.0467,-0.0466,-0.0465,0,-0.0054,-0.0066,-0.0057,-0.0052,-0.0051,-0.0042,-0.0031,-0.0008,-0.0004,0.0048,0.011,0.013,0.0024,-0.0053,-0.0212,-0.0312,-0.0453,-0.0459,-0.0513,-0.0498,-0.0476,-0.0487,-0.0492,-0.0458,-0.0458,-0.0459,-0.0459,-0.046,0.0003,0.0027,0.0032,0.0048,0.0043,0.0072,0.0126,0.0157,0.0233,0.0365,0.0308,0.039,0.0182,0.0047,-0.0147,-0.0358,-0.0387,-0.0469,-0.0472,-0.0475,-0.0477,-0.0458,-0.0434,-0.0435,-0.0435,-0.0436,-0.0436,0,0.0092,0.011,0.0135,0.0163,0.0207,0.0157,0.0212,0.032,0.0471,0.0539,0.0654,0.0541,0.0414,0.0161,-0.0131,-0.0338,-0.0364,-0.0412,-0.0398,-0.0404,-0.041,-0.041,-0.0348,-0.0349,-0.0349,-0.0349,0,0,0.014,0.0204,0.0226,0.0324,0.0334,0.0419,0.0469,0.0631,0.0722,0.0866,0.0897,0.0926,0.0524,0.0342,0.0046,-0.0143,-0.0223,-0.0181,-0.0228,-0.0182,-0.0184,-0.042,-0.0424,0,0,0,0,0]}],[{"header":{"parameterUnit":"m.s-1","parameterCategory":2,"la1":30.2991,"la2":30.254,"lo1":-89.0895,"lo2":-89.0444,"dy":0.0017,"dx":0.0017,"nx":28,"ny":28,"refTime":"2025-03-30T03:00:00:Z","depth":"4","parameterNumber":2,"parameterNumberName":"U-component_of_CURRENTS"},"data":[0,0,0,0,0,0,0,0,0,0,0,0,0,0,0,0,0,0,0,0,0,0,0,0,0,0,0,0,0,0,0,0,0,0,0,0,0,0,0,0,0,0,0,0,0,0,0,0,0,0,0,0,0,0,0,0,0,0,0.046,0.0461,0,0.0523,0.0524,0.0525,0.057,0.057,0.057,0.0571,0.0636,0.0637,0.0639,0,0,0,0,0,0,0,0,0,0,0,0,0,0.0388,0.0389,0.046,0.0461,0.0462,0.0523,0.0524,0.0525,0.057,0.057,0.0571,0.0571,0.0636,0.0637,0.0639,0,0,0,0,0,0,0,0,0,0,0,0,0,0.0432,0.039,0.046,0.0492,0.0495,0.0523,0.0524,0.0525,0.057,0.057,0.0571,0.0571,0.0635,0.0637,0.0639,0.064,0,0,0.0645,0.0646,0,0,0,0,0,0,0,0,0.0429,0.0434,0.0486,0.049,0.0494,0.0539,0.0522,0.0564,0.0569,0.0541,0.0571,0.0572,0.0604,0.0608,0.0618,0.0643,0.0646,0.0645,0.0647,0.0648,0.0648,0,0,0,0,0,0,0,0.0426,0.0432,0.0485,0.0487,0.0492,0.0506,0.0513,0.053,0.0568,0.0544,0.0547,0.0554,0.0606,0.0616,0.062,0.0647,0.0645,0.0647,0.0648,0.0649,0.0792,0.0794,0,0,0,0,0,0,0.0418,0.0429,0.0483,0.0487,0.0463,0.0507,0.0514,0.0524,0.0568,0.0575,0.0554,0.0556,0.0613,0.0618,0.0623,0.071,0.0648,0.0649,0.0651,0.0789,0.0793,0.0795,0,0,0,0,0,0,0.0416,0.0422,0.048,0.0459,0.0468,0.0507,0.0518,0.0525,0.0551,0.0576,0.0583,0.0574,0.0613,0.062,0.066,0.071,0.065,0.0652,0.0786,0.079,0.0794,0.0831,0,0,0,0,0,0,0.0414,0.0421,0.043,0.0459,0.0469,0.0506,0.0517,0.0526,0.0554,0.0558,0.0595,0.0601,0.0614,0.0657,0.0662,0.0712,0.0654,0.0783,0.0788,0.0793,0.0827,0.0836,0.0844,0,0,0,0,0,0.0411,0.042,0.043,0.0436,0.0478,0.0507,0.0513,0.0543,0.0554,0.0568,0.06,0.0601,0.0693,0.066,0.0665,0.0717,0.0781,0.0787,0.0792,0.0823,0.0834,0.0843,0,0,0,0,0,0,0.0393,0.0426,0.0437,0.0456,0.0483,0.0515,0.0529,0.0549,0.0584,0.0591,0.0615,0.0624,0.0683,0.0694,0.0658,0.0777,0.0745,0.0752,0.0766,0.0777,0.0785,0.0752,0.0656,0,0,0,0,0,0.0391,0.0409,0.044,0.0456,0.0468,0.05,0.0517,0.0538,0.057,0.0587,0.0624,0.0667,0.0709,0.0735,0.0769,0.0819,0.081,0.0865,0.0873,0.088,0.0861,0.0874,0.0881,0.0814,0.0814,0.0814,0,0,0.039,0.0409,0.042,0.0453,0.0474,0.05,0.0512,0.0541,0.0572,0.0587,0.065,0.0689,0.0728,0.0793,0.0823,0.081,0.0905,0.0887,0.0893,0.0869,0.0881,0.0887,0.0892,0.0818,0.0817,0.0817,0,0,0.039,0.041,0.0424,0.0447,0.0481,0.0504,0.0515,0.0562,0.0594,0.0653,0.0681,0.0732,0.0813,0.0842,0.0867,0.0937,0.0944,0.0985,0.1004,0.1019,0.1023,0.1026,0.1056,0.1061,0.0996,0.0996,0.0996,0,0.0386,0.041,0.0432,0.0451,0.0474,0.0507,0.053,0.0565,0.0628,0.0656,0.0681,0.0797,0.0827,0.0888,0.0932,0.0951,0.0974,0.0958,0.1025,0.1028,0.1031,0.106,0.1065,0.0998,0.0998,0.0998,0.0997,0,0.0397,0.042,0.043,0.0468,0.0493,0.052,0.0565,0.0607,0.0658,0.0699,0.0781,0.083,0.0896,0.0939,0.0961,0.102,0.1037,0.1025,0.0987,0.1039,0.1068,0.1073,0.1002,0.1001,0.1,0.0999,0,0,0.0387,0.0429,0.0436,0.0453,0.0507,0.0527,0.0579,0.0634,0.0672,0.0751,0.081,0.0895,0.093,0.096,0.1004,0.1029,0.1086,0.1053,0.1053,0.106,0.1149,0.1094,0.1094,0.11,0.11,0.11,0.1171,0,0.0393,0.0423,0.045,0.0489,0.051,0.0554,0.0599,0.0653,0.0717,0.0787,0.084,0.0919,0.0938,0.0994,0.1018,0.1078,0.1098,0.1069,0.1115,0.1116,0.1041,0.1096,0.1102,0.1175,0.1176,0.1177,0.1177,0,0.0406,0.0423,0.0457,0.0501,0.0514,0.0549,0.062,0.0666,0.0752,0.0805,0.0875,0.0933,0.1008,0.1009,0.1091,0.1086,0.1114,0.1141,0.1144,0.107,0.1069,0.1107,0.1186,0.1185,0.1185,0.1184,0.1184,0,0.0394,0.0433,0.0458,0.0476,0.053,0.0562,0.0602,0.068,0.0728,0.0828,0.0887,0.0961,0.1039,0.1067,0.114,0.1134,0.1215,0.1204,0.1167,0.1165,0.1172,0.1167,0.122,0.122,0.122,0.122,0.1219,0,0.0398,0.0419,0.0456,0.0474,0.0507,0.0556,0.0613,0.0663,0.0753,0.0815,0.0902,0.0965,0.1063,0.113,0.1153,0.1186,0.1222,0.1168,0.1173,0.1195,0.1191,0.1177,0.1171,0.1222,0.1222,0.1221,0.1221,0,0.0388,0.0412,0.0439,0.0488,0.0505,0.0535,0.0613,0.0655,0.0748,0.0836,0.0879,0.1006,0.1093,0.116,0.1233,0.1217,0.1235,0.1225,0.1266,0.1273,0.1175,0.1171,0.1196,0.1194,0.1193,0.1192,0.1191,0,0.0382,0.0397,0.0439,0.0451,0.0479,0.0527,0.0562,0.0647,0.0696,0.0846,0.0885,0.1017,0.1089,0.1143,0.1208,0.1241,0.1221,0.1236,0.1176,0.1167,0.117,0.1168,0.1166,0.1189,0.1189,0.1189,0.1188,0,0.0369,0.0391,0.041,0.0434,0.0466,0.0492,0.0554,0.0583,0.0694,0.0786,0.0874,0.0945,0.1044,0.1106,0.1153,0.1162,0.1231,0.1222,0.1224,0.1168,0.1159,0.1163,0.1162,0.1184,0.1185,0.1185,0.1185,0,0.0356,0.0363,0.039,0.041,0.0439,0.0456,0.0487,0.0549,0.0604,0.0766,0.079,0.0916,0.1022,0.1065,0.1095,0.112,0.1103,0.1072,0.1082,0.1087,0.1021,0.0992,0.0969,0,0,0,0,0,0.0336,0.0343,0.0361,0.0377,0.0407,0.0422,0.0481,0.052,0.0626,0.0663,0.0725,0.0802,0.0893,0.0953,0.0958,0.1056,0.1105,0.1061,0.1073,0.116,0.1165,0.1098,0,0,0,0,0,0,0.0319,0.0336,0.0348,0.0349,0.0356,0.0381,0.0412,0.0479,0.0498,0.0613,0.0652,0.0758,0.0839,0.0876,0.0943,0.0965,0.0959,0.1137,0.1136,0.1157,0.1162,0.1166,0.1099,0,0,0,0,0]},{"header":{"parameterUnit":"m.s-1","parameterCategory":2,"la1":30.2991,"la2":30.254,"lo1":-89.0895,"lo2":-89.0444,"dy":0.0017,"dx":0.0017,"nx":28,"ny":28,"refTime":"2025-03-30T03:00:00:Z","depth":"4","parameterNumber":3,"parameterNumberName":"V-component_of_CURRENTS"},"data":[0,0,0,0,0,0,0,0,0,0,0,0,0,0,0,0,0,0,0,0,0,0,0,0,0,0,0,0,0,0,0,0,0,0,0,0,0,0,0,0,0,0,0,0,0,0,0,0,0,0,0,0,0,0,0,0,0,0,0.0265,0.0265,0,0.0231,0.0231,0.023,0.0153,0.0151,0.015,0.0148,0.0109,0.0109,0.011,0,0,0,0,0,0,0,0,0,0,0,0,0,0.0248,0.0249,0.0265,0.0265,0.0265,0.0231,0.0231,0.023,0.0153,0.0151,0.0149,0.0148,0.0109,0.0109,0.011,0,0,0,0,0,0,0,0,0,0,0,0,0,0.0238,0.0249,0.0265,0.0223,0.0219,0.0232,0.0231,0.023,0.0153,0.0151,0.0149,0.0147,0.0109,0.0109,0.011,0.0159,0,0,0.0112,0.0112,0,0,0,0,0,0,0,0,0.0239,0.0239,0.0229,0.0226,0.0221,0.0195,0.021,0.0207,0.0154,0.0177,0.0148,0.0146,0.0139,0.0137,0.0135,0.0158,0.0156,0.0112,0.0112,0.0112,0.0112,0,0,0,0,0,0,0,0.024,0.024,0.0251,0.0229,0.0224,0.02,0.0196,0.0209,0.0171,0.0175,0.017,0.0168,0.0137,0.0135,0.0134,0.0155,0.0112,0.0112,0.0113,0.0113,0.0173,0.0174,0,0,0,0,0,0,0.0249,0.0241,0.0252,0.025,0.0225,0.0202,0.0198,0.0205,0.0171,0.0164,0.017,0.0164,0.0135,0.0133,0.0132,0.0123,0.0112,0.0113,0.0113,0.0171,0.0173,0.0174,0,0,0,0,0,0,0.0249,0.0251,0.0254,0.0244,0.0243,0.0205,0.0213,0.0205,0.0193,0.0167,0.0159,0.0164,0.0133,0.0131,0.0145,0.0123,0.0113,0.0114,0.017,0.0172,0.0174,0.0147,0,0,0,0,0,0,0.0249,0.0251,0.0261,0.0246,0.0244,0.0257,0.0216,0.0206,0.0196,0.0188,0.016,0.0154,0.0131,0.0144,0.0145,0.0124,0.0114,0.0168,0.0171,0.0173,0.0146,0.0148,0.0149,0,0,0,0,0,0.0249,0.0264,0.0263,0.0264,0.0259,0.0258,0.0255,0.0219,0.0198,0.0198,0.0185,0.0154,0.0159,0.0147,0.0147,0.0125,0.0167,0.017,0.0173,0.0146,0.0147,0.0149,0,0,0,0,0,0,0.0262,0.0257,0.0255,0.0269,0.0266,0.0245,0.0241,0.0228,0.0219,0.0207,0.0182,0.0177,0.0174,0.0176,0.0163,0.0155,0.0154,0.0158,0.0134,0.0135,0.0137,0.0129,0.0115,0,0,0,0,0,0.0275,0.028,0.0278,0.0289,0.0289,0.0271,0.0267,0.0247,0.0237,0.0228,0.0214,0.0202,0.0193,0.0185,0.0184,0.0194,0.0183,0.0181,0.0182,0.0183,0.0182,0.0168,0.0167,0.0183,0.0183,0.0183,0,0,0.0281,0.0281,0.0283,0.0292,0.0283,0.0275,0.0261,0.0256,0.0242,0.0231,0.0215,0.0212,0.0201,0.0194,0.0193,0.0187,0.0173,0.0186,0.0186,0.0185,0.0171,0.0168,0.0166,0.0185,0.0185,0.0185,0,0,0.0281,0.03,0.0295,0.0295,0.0289,0.0283,0.0285,0.0274,0.026,0.0263,0.0241,0.0236,0.0231,0.0209,0.0198,0.022,0.0185,0.0216,0.0205,0.0191,0.0188,0.0186,0.0158,0.0154,0.021,0.021,0.021,0,0.0284,0.0288,0.0296,0.0287,0.0285,0.0286,0.0278,0.0272,0.0266,0.0264,0.0254,0.0242,0.023,0.021,0.0204,0.0216,0.0202,0.0189,0.0188,0.0186,0.0184,0.0156,0.0151,0.0209,0.0209,0.0209,0.0209,0,0.0271,0.0277,0.0276,0.0266,0.0269,0.0269,0.0264,0.0267,0.026,0.0251,0.0245,0.0239,0.0228,0.0218,0.0209,0.019,0.0182,0.0191,0.0173,0.018,0.0151,0.0146,0.0207,0.0208,0.0208,0.0208,0,0,0.0265,0.0266,0.0265,0.0266,0.0261,0.0265,0.0254,0.0253,0.025,0.0241,0.0232,0.0211,0.0213,0.0205,0.0197,0.0178,0.0143,0.0174,0.0173,0.0126,0.0098,0.0066,0.0058,0.0145,0.0145,0.0145,0.0077,0,0.025,0.0243,0.0244,0.024,0.024,0.0244,0.0241,0.0239,0.0239,0.0237,0.0222,0.0218,0.0205,0.0202,0.018,0.0161,0.0132,0.016,0.0117,0.0115,0.007,0.0053,0.0143,0.0074,0.0073,0.0072,0.0071,0,0.0233,0.0235,0.0231,0.0243,0.0243,0.0242,0.0252,0.0248,0.0244,0.0242,0.0229,0.0224,0.0196,0.0194,0.0139,0.0155,0.0123,0.0102,0.01,0.0077,0.0076,0.0072,0.0063,0.0063,0.0064,0.0065,0.0065,0,0.0234,0.023,0.0235,0.0235,0.0241,0.0245,0.0251,0.0252,0.0267,0.0252,0.0259,0.0222,0.0218,0.0169,0.0121,0.0129,0.0058,0.0068,0.0005,0.0002,0.006,0.0063,0.0025,0.0025,0.0026,0.0026,0.0026,0,0.0225,0.0229,0.0241,0.0242,0.0259,0.0257,0.0277,0.0275,0.0286,0.0308,0.027,0.0274,0.0215,0.0171,0.0116,0.0037,0.0051,-0.0008,-0.0019,0.0051,0.0055,0.0055,0.006,0.0023,0.0024,0.0024,0.0025,0,0.0226,0.0229,0.0241,0.0253,0.0261,0.0276,0.0309,0.0329,0.0327,0.0353,0.0352,0.0316,0.0247,0.0172,0.0092,0.0039,-0.0036,-0.0066,-0.0003,-0.0008,-0.0085,-0.0081,-0.0148,-0.015,-0.0151,-0.0152,-0.0153,0,0.0224,0.0229,0.0256,0.0275,0.0284,0.0309,0.0335,0.035,0.0376,0.0381,0.0396,0.0338,0.0299,0.0153,0.0066,-0.0069,-0.0078,-0.0125,-0.0096,-0.0099,-0.0103,-0.0097,-0.0091,-0.0156,-0.0156,-0.0157,-0.0157,0,0.0223,0.0238,0.0253,0.0294,0.0326,0.0361,0.0398,0.0423,0.0444,0.0446,0.0433,0.0356,0.0269,0.0151,0.0038,-0.005,-0.0101,-0.014,-0.0138,-0.011,-0.0109,-0.011,-0.0103,-0.0162,-0.0161,-0.0161,-0.016,0,0.0229,0.0247,0.0275,0.0314,0.0358,0.0403,0.0419,0.0447,0.047,0.0479,0.0471,0.0375,0.0324,0.016,0.006,-0.0044,-0.0061,-0.0082,-0.0082,-0.0078,-0.0039,-0.0027,-0.0073,0,0,0,0,0,0.0228,0.0254,0.0294,0.0343,0.0392,0.0421,0.046,0.0474,0.0497,0.0496,0.0487,0.0405,0.0248,0.0176,0.0067,0.0025,-0.0088,-0.0106,-0.0113,-0.0189,-0.0184,-0.0153,0,0,0,0,0,0,0.0227,0.0262,0.0293,0.0362,0.0407,0.0463,0.0492,0.0506,0.0499,0.0503,0.0418,0.0383,0.0224,0.032,0.0071,0.0037,0.0018,-0.0179,-0.0182,-0.0193,-0.0187,-0.0183,-0.0149,0,0,0,0,0]}]]